| time (UTC) | temp F | wind direction | speed knots | gust knots | rain 1hr in | rain 24hr in | rain mn in | humidity % | barometer mb |
| 20260506082217 | 41 | 0.0 | 0.0 | 0.00 | 0.00 | 0.00 | 65 | 1010.2 | |
| 20260506081237 | 42 | 0.0 | 0.0 | 0.00 | 0.00 | 0.00 | 64 | 1010.1 | |
| 20260506080217 | 43 | 0.0 | 0.0 | 0.00 | 0.00 | 0.00 | 60 | 1010.2 | |
| 20260506073216 | 44 | 23 | 0.9 | 2.6 | 0.00 | 0.00 | 0.00 | 55 | 1010.2 |
| 20260506072217 | 45 | 68 | 0.9 | 1.7 | 0.00 | 0.00 | 0.00 | 54 | 1009.9 |
| 20260506071217 | 45 | 45 | 0.9 | 2.6 | 0.00 | 0.00 | 0.00 | 53 | 1009.8 |
| 20260506070217 | 45 | 23 | 0.9 | 0.9 | 0.00 | 0.00 | 0.00 | 52 | 1009.8 |
| 20260506062216 | 47 | 0 | 1.7 | 1.7 | 0.00 | 0.00 | 0.00 | 49 | 1010.1 |
| 20260506061217 | 47 | 0 | 1.7 | 3.5 | 0.00 | 0.00 | 0.00 | 49 | 1010.0 |
| 20260506060217 | 47 | 23 | 1.7 | 1.7 | 0.00 | 0.00 | 0.00 | 49 | 1009.9 |
| 20260506051216 | 49 | 315 | 1.7 | 1.7 | 0.00 | 0.00 | 0.00 | 48 | 1009.5 |
| 20260506050216 | 50 | 0 | 0.9 | 1.7 | 0.00 | 0.00 | 0.00 | 47 | 1009.5 |
| 20260506044258 | 50 | 315 | 1.7 | 3.5 | 0.00 | 0.00 | 0.00 | 45 | 1009.3 |
| 20260506043217 | 51 | 338 | 2.6 | 3.5 | 0.00 | 0.00 | 0.00 | 45 | 1009.5 |
| 20260506042238 | 51 | 293 | 1.7 | 4.3 | 0.00 | 0.00 | 0.00 | 44 | 1009.5 |
| 20260506041238 | 51 | 338 | 0.9 | 1.7 | 0.00 | 0.00 | 0.00 | 43 | 1009.5 |
| 20260506040217 | 51 | 0 | 1.7 | 3.5 | 0.00 | 0.00 | 0.00 | 44 | 1009.5 |
| 20260506035217 | 51 | 23 | 2.6 | 4.3 | 0.00 | 0.00 | 0.00 | 43 | 1009.1 |
| 20260506034217 | 51 | 315 | 2.6 | 6.1 | 0.00 | 0.00 | 0.00 | 43 | 1009.2 |
| 20260506033217 | 51 | 0 | 1.7 | 7.0 | 0.00 | 0.00 | 0.00 | 43 | 1009.1 |
| 20260506032217 | 51 | 315 | 4.3 | 7.0 | 0.00 | 0.00 | 0.00 | 44 | 1008.8 |
| 20260506031217 | 51 | 338 | 2.6 | 6.1 | 0.00 | 0.00 | 0.00 | 48 | 1008.7 |
| 20260506030217 | 51 | 293 | 0.9 | 1.7 | 0.00 | 0.00 | 0.00 | 46 | 1008.7 |
| 20260506025217 | 51 | 0.0 | 0.9 | 0.00 | 0.00 | 0.00 | 45 | 1008.5 | |
| 20260506024217 | 52 | 270 | 0.9 | 0.9 | 0.00 | 0.00 | 0.00 | 45 | 1008.7 |
| 20260506023217 | 52 | 270 | 0.9 | 1.7 | 0.00 | 0.00 | 0.00 | 44 | 1008.7 |
| 20260506022217 | 52 | 315 | 0.9 | 0.9 | 0.00 | 0.00 | 0.00 | 43 | 1008.3 |
| 20260506021217 | 52 | 293 | 1.7 | 1.7 | 0.00 | 0.00 | 0.00 | 42 | 1008.3 |
| 20260506020217 | 52 | 293 | 1.7 | 2.6 | 0.00 | 0.00 | 0.00 | 42 | 1008.1 |
| 20260506015217 | 53 | 315 | 1.7 | 2.6 | 0.00 | 0.00 | 0.00 | 41 | 1007.9 |
| 20260506014217 | 53 | 293 | 0.9 | 0.9 | 0.00 | 0.00 | 0.00 | 41 | 1007.9 |
| 20260506013217 | 53 | 270 | 1.7 | 1.7 | 0.00 | 0.00 | 0.00 | 40 | 1007.6 |
| 20260506012217 | 53 | 315 | 0.9 | 1.7 | 0.00 | 0.00 | 0.00 | 39 | 1007.5 |
| 20260506011217 | 54 | 293 | 2.6 | 4.3 | 0.00 | 0.00 | 0.00 | 39 | 1007.5 |
| 20260506010217 | 54 | 315 | 4.3 | 7.0 | 0.00 | 0.00 | 0.00 | 38 | 1007.3 |
| 20260506005217 | 54 | 270 | 3.5 | 9.6 | 0.00 | 0.00 | 0.00 | 38 | 1007.1 |
| 20260506004217 | 54 | 270 | 1.7 | 4.3 | 0.00 | 0.00 | 0.00 | 38 | 1007.2 |
| 20260506003217 | 54 | 293 | 4.3 | 9.6 | 0.00 | 0.00 | 0.00 | 38 | 1006.9 |
| 20260506002217 | 54 | 293 | 0.9 | 1.7 | 0.00 | 0.00 | 0.00 | 38 | 1006.9 |
| 20260506001217 | 55 | 293 | 2.6 | 3.5 | 0.00 | 0.00 | 0.00 | 37 | 1007.0 |
| 20260506000219 | 55 | 270 | 1.7 | 3.5 | 0.00 | 0.00 | 0.00 | 38 | 1007.1 |
| 20260505235217 | 55 | 293 | 0.9 | 1.7 | 0.00 | 0.10 | 0.00 | 37 | 1006.9 |
| 20260505234217 | 55 | 338 | 3.5 | 7.0 | 0.00 | 0.10 | 0.00 | 36 | 1007.0 |
| 20260505233216 | 55 | 293 | 6.1 | 7.8 | 0.00 | 0.10 | 0.00 | 36 | 1007.0 |
| 20260505232217 | 55 | 315 | 6.1 | 11.3 | 0.00 | 0.10 | 0.00 | 35 | 1007.1 |
| 20260505231216 | 55 | 0 | 2.6 | 8.7 | 0.00 | 0.10 | 0.00 | 36 | 1007.0 |
| 20260505230216 | 56 | 293 | 4.3 | 6.1 | 0.00 | 0.10 | 0.00 | 36 | 1007.0 |
| 20260505225217 | 56 | 270 | 4.3 | 9.6 | 0.00 | 0.19 | 0.00 | 35 | 1007.1 |
| 20260505224237 | 56 | 270 | 6.1 | 8.7 | 0.00 | 0.19 | 0.00 | 34 | 1007.4 |
| 20260505223216 | 56 | 248 | 6.1 | 7.8 | 0.00 | 0.19 | 0.00 | 34 | 1007.4 |
| 20260505222257 | 56 | 270 | 6.1 | 10.4 | 0.00 | 0.19 | 0.00 | 34 | 1007.3 |
| 20260505221217 | 55 | 270 | 3.5 | 6.1 | 0.00 | 0.19 | 0.00 | 35 | 1007.2 |
| 20260505220217 | 56 | 293 | 5.2 | 7.8 | 0.00 | 0.19 | 0.00 | 33 | 1007.3 |
| 20260505215237 | 56 | 248 | 6.1 | 8.7 | 0.00 | 0.19 | 0.00 | 33 | 1007.6 |
| 20260505214217 | 56 | 315 | 4.3 | 8.7 | 0.00 | 0.19 | 0.00 | 33 | 1007.5 |
| 20260505213217 | 56 | 248 | 3.5 | 5.2 | 0.00 | 0.19 | 0.00 | 34 | 1007.4 |
| 20260505212216 | 56 | 270 | 7.0 | 9.6 | 0.00 | 0.19 | 0.00 | 33 | 1007.4 |
| 20260505211237 | 56 | 315 | 2.6 | 4.3 | 0.00 | 0.19 | 0.00 | 34 | 1007.4 |
| 20260505210216 | 56 | 248 | 7.0 | 8.7 | 0.00 | 0.19 | 0.00 | 33 | 1007.4 |
| 20260505205216 | 56 | 270 | 6.1 | 11.3 | 0.00 | 0.19 | 0.00 | 34 | 1007.4 |
| 20260505204216 | 56 | 293 | 7.0 | 10.4 | 0.00 | 0.19 | 0.00 | 33 | 1007.5 |
| 20260505203216 | 56 | 293 | 7.0 | 10.4 | 0.00 | 0.19 | 0.00 | 32 | 1007.8 |
| 20260505202216 | 56 | 270 | 7.0 | 10.4 | 0.00 | 0.19 | 0.00 | 32 | 1007.8 |
| 20260505201337 | 56 | 270 | 7.8 | 10.4 | 0.00 | 0.19 | 0.00 | 31 | 1007.8 |
| 20260505200257 | 56 | 315 | 5.2 | 7.8 | 0.00 | 0.19 | 0.00 | 31 | 1007.8 |
| 20260505195216 | 56 | 270 | 5.2 | 7.0 | 0.00 | 0.19 | 0.00 | 31 | 1007.7 |
| 20260505194216 | 56 | 293 | 5.2 | 7.8 | 0.00 | 0.19 | 0.00 | 32 | 1007.7 |
| 20260505193317 | 56 | 270 | 6.1 | 8.7 | 0.00 | 0.19 | 0.00 | 32 | 1007.7 |
| 20260505192216 | 56 | 270 | 6.1 | 9.6 | 0.00 | 0.19 | 0.00 | 33 | 1007.8 |
| 20260505191216 | 56 | 270 | 5.2 | 7.8 | 0.00 | 0.19 | 0.00 | 33 | 1008.2 |
| 20260505190216 | 56 | 248 | 5.2 | 8.7 | 0.00 | 0.19 | 0.00 | 31 | 1008.0 |
| 20260505185216 | 56 | 270 | 7.8 | 11.3 | 0.00 | 0.19 | 0.00 | 33 | 1007.9 |
| 20260505184216 | 56 | 248 | 5.2 | 7.8 | 0.00 | 0.19 | 0.00 | 31 | 1008.1 |
| 20260505183237 | 56 | 270 | 7.8 | 10.4 | 0.00 | 0.19 | 0.00 | 31 | 1008.1 |
| 20260505182216 | 57 | 248 | 6.1 | 9.6 | 0.00 | 0.19 | 0.00 | 32 | 1007.9 |
| 20260505181216 | 57 | 315 | 3.5 | 6.1 | 0.00 | 0.19 | 0.00 | 33 | 1007.9 |
| 20260505180216 | 57 | 293 | 2.6 | 5.2 | 0.00 | 0.19 | 0.00 | 36 | 1007.9 |
| 20260505175216 | 57 | 293 | 3.5 | 6.1 | 0.00 | 0.19 | 0.00 | 35 | 1007.8 |
| 20260505174216 | 57 | 248 | 7.0 | 9.6 | 0.00 | 0.19 | 0.00 | 36 | 1007.8 |
| 20260505173216 | 57 | 270 | 7.8 | 10.4 | 0.00 | 0.19 | 0.00 | 35 | 1007.6 |
| 20260505172216 | 56 | 270 | 10.4 | 13.9 | 0.00 | 0.19 | 0.00 | 37 | 1007.6 |
| 20260505171216 | 56 | 293 | 9.6 | 12.2 | 0.00 | 0.19 | 0.00 | 36 | 1007.6 |
| 20260505170216 | 56 | 45 | 2.6 | 7.0 | 0.00 | 0.19 | 0.00 | 37 | 1007.5 |
| 20260505165216 | 56 | 293 | 4.3 | 7.8 | 0.00 | 0.19 | 0.00 | 36 | 1007.4 |
| 20260505164236 | 56 | 248 | 3.5 | 6.1 | 0.00 | 0.19 | 0.00 | 36 | 1007.7 |
| 20260505163216 | 56 | 315 | 6.1 | 9.6 | 0.00 | 0.19 | 0.00 | 37 | 1007.8 |
| 20260505162216 | 55 | 293 | 7.0 | 7.8 | 0.00 | 0.19 | 0.00 | 37 | 1007.6 |
| 20260505161236 | 55 | 315 | 3.5 | 6.1 | 0.00 | 0.19 | 0.00 | 39 | 1007.4 |
| 20260505160216 | 55 | 270 | 4.3 | 7.8 | 0.00 | 0.19 | 0.00 | 40 | 1007.2 |
| 20260505153216 | 54 | 293 | 6.1 | 8.7 | 0.00 | 0.19 | 0.00 | 43 | 1007.2 |
| 20260505152216 | 53 | 315 | 5.2 | 7.0 | 0.00 | 0.19 | 0.00 | 44 | 1007.1 |
| 20260505151216 | 53 | 293 | 4.3 | 7.8 | 0.00 | 0.19 | 0.00 | 41 | 1007.3 |
| 20260505150216 | 52 | 293 | 5.2 | 9.6 | 0.00 | 0.19 | 0.00 | 43 | 1007.3 |
| 20260505140217 | 51 | 270 | 1.7 | 2.6 | 0.00 | 0.19 | 0.00 | 45 | 1007.6 |
| 20260505130218 | 49 | 293 | 4.3 | 7.0 | 0.00 | 0.19 | 0.00 | 53 | 1007.2 |
| 20260505124217 | 49 | 225 | 1.7 | 2.6 | 0.00 | 0.19 | 0.00 | 59 | 1007.3 |
| 20260505123218 | 49 | 293 | 1.7 | 2.6 | 0.00 | 0.19 | 0.00 | 58 | 1007.4 |
| 20260505122217 | 49 | 0.0 | 0.9 | 0.00 | 0.19 | 0.00 | 58 | 1007.2 | |
| 20260505121218 | 49 | 203 | 0.9 | 1.7 | 0.00 | 0.19 | 0.00 | 55 | 1007.1 |
| 20260505120218 | 49 | 225 | 1.7 | 1.7 | 0.00 | 0.19 | 0.00 | 56 | 1007.5 |
| 20260505115238 | 49 | 270 | 2.6 | 3.5 | 0.00 | 0.19 | 0.00 | 57 | 1007.3 |
| 20260505114218 | 49 | 0.0 | 0.9 | 0.00 | 0.19 | 0.00 | 56 | 1006.8 | |
| 20260505113238 | 49 | 338 | 0.9 | 1.7 | 0.00 | 0.19 | 0.00 | 54 | 1006.1 |
| 20260505112217 | 50 | 315 | 3.5 | 7.0 | 0.00 | 0.19 | 0.00 | 51 | 1006.4 |
| 20260505111217 | 50 | 68 | 0.9 | 2.6 | 0.00 | 0.19 | 0.00 | 49 | 1005.4 |
| 20260505110218 | 50 | 0 | 5.2 | 7.8 | 0.00 | 0.19 | 0.00 | 49 | 1005.4 |
| 20260505102218 | 51 | 315 | 5.2 | 7.0 | 0.00 | 0.19 | 0.00 | 51 | 1005.7 |
| 20260505101217 | 51 | 315 | 1.7 | 3.5 | 0.00 | 0.19 | 0.00 | 51 | 1005.2 |
| 20260505100217 | 51 | 68 | 1.7 | 2.6 | 0.00 | 0.19 | 0.00 | 50 | 1004.9 |
| 20260505095217 | 52 | 338 | 3.5 | 5.2 | 0.00 | 0.19 | 0.00 | 50 | 1004.9 |
| 20260505094258 | 52 | 315 | 2.6 | 3.5 | 0.00 | 0.19 | 0.00 | 53 | 1005.2 |
| 20260505093217 | 53 | 293 | 1.7 | 2.6 | 0.00 | 0.19 | 0.00 | 51 | 1005.2 |
| 20260505092258 | 53 | 338 | 2.6 | 4.3 | 0.00 | 0.19 | 0.00 | 48 | 1005.1 |
| 20260505091217 | 53 | 293 | 1.7 | 3.5 | 0.00 | 0.19 | 0.00 | 48 | 1005.0 |
| 20260505090237 | 53 | 315 | 3.5 | 7.0 | 0.00 | 0.19 | 0.00 | 47 | 1004.7 |
| 20260505085218 | 54 | 315 | 2.6 | 6.1 | 0.00 | 0.19 | 0.00 | 46 | 1004.5 |
| 20260505084217 | 54 | 315 | 6.1 | 11.3 | 0.00 | 0.19 | 0.00 | 46 | 1004.2 |
| 20260505083217 | 55 | 338 | 5.2 | 9.6 | 0.00 | 0.19 | 0.00 | 46 | 1003.9 |